Upstream stations:
Downstream station:
SHEF ID: PAWO2 Black Bear Creek at Pawnee, OK
STATION TYPE:
Regulating: Stage = 17.00, Flow = 9998
PRECIP STAGE RIV-FLOW BAT-LOAD
in ft cfs volt
Ccp-Rev Ccp-Rev Ccp-Rev Ccp-Rev
(US/Central)
07/07 00:00 0.00 1.63 13 12.53
07/07 01:00 0.00 1.62 13 12.51
07/07 02:00 0.00 1.63 13 12.50
07/07 03:00 0.00 1.63 13 12.48
07/07 04:00 0.00 1.62 13 12.48
07/07 05:00 0.00 1.62 13 12.48
07/07 06:00 0.00 1.62 13 12.46
07/07 07:00 0.00 1.62 13 12.44
07/07 08:00 0.00 1.62 13 12.48
07/07 09:00 0.00 1.62 13 12.65
07/07 10:00 0.00 1.62 13 12.72
07/07 11:00 0.00 1.59 12 12.83
07/07 12:00 0.00 1.59 12 12.91
07/07 13:00 0.00 1.59 12 13.26
07/07 14:00 0.00 1.63 13 13.36
07/07 15:00 0.00 1.63 13 13.42
07/07 16:00 0.00 1.61 13 13.43
07/07 17:00 0.00 1.60 12 12.90
07/07 18:00 0.00 1.63 13 12.88
07/07 19:00 0.00 1.63 13 12.86
07/07 20:00 0.00 1.62 13 12.77
07/07 21:00 0.00 1.62 13 12.61
07/07 22:00 0.00 1.62 13 12.57
07/07 23:00 0.00 1.62 13 12.54